Volver al catálogo

CZ-6A DEB

ActivoPO
NORAD 60896·DEBRIS·🇨🇳 China

Lanzado Aug 6, 2024 desde Taiyuan Satellite Launch Center

Loading…

Próximos Pases (próximas 24 horas)

TLE

ActualizadoSource: Space-Track

Época: Sep 14, 2026, 13:09 UTC

1 60896U 24140LB  26257.54834274  .00000764  00000-0  28681-3 0  9994
2 60896  88.3509 203.6281 0057258 142.9371 217.5800 14.29662133108032

Sigue CZ-6A DEB en tiempo real con AllMySat

Download on the App Store